Location: Grantsboro
(35.1404°N, 76.8424°W)
Time: 21:13:28
(UTC+00:00)

Cosmos 1959 Rocket - Pass Details

Date: 18 January 2020
Orbit: 947 x 997 km, 83.0° (Epoch: 28 February)

Event Time Altitude Azimuth Distance (km) Brightness Sun altitude
Rises 00:02:03 0° 179° (S) 3,664 7.6 -20.6°
Reaches altitude 10° 00:04:34 10° 177° (S) 2,712 6.9 -21.1°
Maximum altitude 00:10:44 73° 94° (E) 1,009 4.3 -22.3°
Drops below altitude 10° 00:16:53 10° 11° (N) 2,695 6.6 -23.5°
Enters shadow 00:18:04 - 10° (N) 3,142 7.0 -23.8°
